Change the Weather History Date:

Saturday, July 27, 2013

  Actual Average (KMAI) Record (KMAI)
Temperature  
Mean Temperature 82 °F 82 °F  
Max Temperature 91 °F 91 °F 99 °F (2010)
Min Temperature 73 °F 73 °F 69 °F (2000)
Degree Days  
Heating Degree Days 0    
Month to date heating degree days  
Since 1 June heating degree days  
Since 1 July heating degree days  
Cooling Degree Days 17    
Month to date cooling degree days  
Year to date cooling degree days  
Since 1 June cooling degree days  
Growing Degree Days 32 (Base 50)    
Moisture  
Dew Point 75 °F    
Average Humidity 82    
Maximum Humidity 100    
Minimum Humidity 52    
Precipitation  
Precipitation 0.00 in 0.15 in 0.26 in (2001)
Month to date precipitation 4.53  
Year to date precipitation 32.32  
Sea Level Pressure  
Sea Level Pressure 29.97 in    
Wind  
Wind Speed 3 mph (WSW)    
Max Wind Speed 16 mph    
Max Gust Speed 25 mph    
Visibility 8 miles    
Events Rain , Thunderstorm    
T = Trace of Precipitation, MM = Missing Value Source: NWS Daily Summary

Daily Weather History Graph

Daily Weather History Graph

Search for Another Location

Airport or City:

Trip Planner

Search our weather history database for the weather conditions in past years. The results will help you decide how hot, cold, wet, or windy it might be!

Date:

Astronomy

Jul. 27, 2013 Rise Set
Actual Time 6:52 AM EDT 8:36 PM EDT
Civil Twilight 6:26 AM EDT 9:03 PM EDT
Nautical Twilight 5:54 AM EDT 9:35 PM EDT
Astronomical Twilight 5:20 AM EDT 10:08 PM EDT
Moon 11:52 PM EDT (7/27) 12:05 PM EDT (7/27)
Length of Visible Light 14h 37m
Length of Day
13h 44m
Waning Gibbous, 71% of the Moon is Illuminated
Jul 27
Waning Gibbous
Jul 29
Last Quarter
Aug 6
New
Aug 14
First Quarter
Aug 20
Full

Hourly Weather History & Observations

Time (EDT) Temp. Heat Index Dew Point Humidity Pressure Visibility Wind Dir Wind Speed Gust Speed Precip Events Conditions
12:15 AM 78.8 °F - 77.0 °F 94% 29.99 in 10.0 mi Calm Calm - N/A   Clear
12:35 AM 78.8 °F - 77.0 °F 94% 30.00 in 10.0 mi East 4.6 mph - N/A   Clear
12:55 AM 78.8 °F - 75.2 °F 89% 29.99 in 10.0 mi Calm Calm - N/A   Clear
1:15 AM 78.8 °F - 73.4 °F 83% 29.99 in 10.0 mi Calm Calm - N/A   Clear
1:35 AM 78.8 °F - 75.2 °F 89% 29.99 in 10.0 mi Calm Calm - N/A   Clear
1:55 AM 77.0 °F - 73.4 °F 89% 29.98 in 10.0 mi WSW 3.5 mph - N/A   Clear
2:15 AM 77.0 °F - 73.4 °F 89% 29.97 in 10.0 mi WSW 3.5 mph - N/A   Clear
2:35 AM 77.0 °F - 73.4 °F 89% 29.97 in 10.0 mi Calm Calm - N/A   Clear
2:55 AM 77.0 °F - 73.4 °F 89% 29.97 in 10.0 mi Calm Calm - N/A   Clear
3:15 AM 77.0 °F - 73.4 °F 89% 29.96 in 10.0 mi Calm Calm - N/A   Clear
3:35 AM 77.0 °F - 73.4 °F 89% 29.96 in 10.0 mi Calm Calm - N/A   Clear
3:55 AM 75.2 °F - 73.4 °F 94% 29.96 in 10.0 mi Calm Calm - N/A   Clear
4:15 AM 75.2 °F - 73.4 °F 94% 29.96 in 7.0 mi Calm Calm - N/A   Clear
4:35 AM 75.2 °F - 73.4 °F 94% 29.96 in 7.0 mi Calm Calm - N/A   Clear
4:55 AM 75.2 °F - 73.4 °F 94% 29.96 in 7.0 mi Calm Calm - N/A   Clear
5:15 AM 73.4 °F - 73.4 °F 100% 29.96 in 5.0 mi West 4.6 mph - N/A   Clear
5:35 AM 73.4 °F - 73.4 °F 100% 29.97 in 5.0 mi WSW 3.5 mph - N/A   Clear
5:55 AM 75.2 °F - 73.4 °F 94% 29.96 in 5.0 mi Calm Calm - N/A   Clear
6:15 AM 75.2 °F - 73.4 °F 94% 29.96 in 4.0 mi Calm Calm - N/A   Clear
6:35 AM 75.2 °F - 73.4 °F 94% 29.96 in 3.0 mi SW 4.6 mph - N/A   Mist
6:55 AM 75.2 °F - 73.4 °F 94% 29.97 in 1.8 mi West 4.6 mph - N/A   Mist
7:15 AM 77.0 °F - 75.2 °F 94% 29.98 in 1.8 mi Calm Calm - N/A   Mist
7:35 AM 77.0 °F - 75.2 °F 94% 29.98 in 1.8 mi Calm Calm - N/A   Mist
7:55 AM 78.8 °F - 78.8 °F 100% 29.98 in 1.8 mi West 3.5 mph - N/A   Mist
8:15 AM 78.8 °F - 77.0 °F 94% 29.99 in 2.0 mi West 3.5 mph - N/A   Mist
8:35 AM 78.8 °F - 77.0 °F 94% 30.00 in 2.0 mi West 3.5 mph - N/A   Mist
8:55 AM 78.8 °F - 77.0 °F 94% 30.00 in 2.5 mi Calm Calm - N/A   Mist
9:15 AM 80.6 °F 88.1 °F 78.8 °F 94% 30.00 in 4.0 mi Calm Calm - N/A   Clear
9:35 AM 80.6 °F 88.1 °F 78.8 °F 94% 30.00 in 7.0 mi WSW 3.5 mph - N/A   Clear
9:55 AM 84.2 °F 96.1 °F 78.8 °F 84% 30.00 in 7.0 mi WSW 3.5 mph - N/A   Clear
10:15 AM 86.0 °F 99.3 °F 78.8 °F 79% 30.00 in 10.0 mi WSW 6.9 mph - N/A   Clear
10:35 AM 86.0 °F 99.3 °F 78.8 °F 79% 30.00 in 10.0 mi WSW 8.1 mph - N/A   Clear
10:55 AM 86.0 °F 99.3 °F 78.8 °F 79% 29.99 in 10.0 mi WSW 5.8 mph - N/A   Clear
11:15 AM 87.8 °F 99.7 °F 77.0 °F 70% 29.99 in 10.0 mi WSW 6.9 mph - N/A   Clear
11:35 AM 87.8 °F 99.7 °F 77.0 °F 70% 29.99 in 10.0 mi WSW 8.1 mph - N/A   Scattered Clouds
11:55 AM 89.6 °F 102.2 °F 77.0 °F 66% 29.99 in 10.0 mi WSW 4.6 mph - N/A   Clear
12:15 PM 87.8 °F 99.7 °F 77.0 °F 70% 29.98 in 10.0 mi SW 5.8 mph - N/A   Clear
12:35 PM 87.8 °F 99.7 °F 77.0 °F 70% 29.97 in 10.0 mi WSW 6.9 mph - N/A   Scattered Clouds
12:55 PM 89.6 °F 102.2 °F 77.0 °F 66% 29.97 in 10.0 mi SSW 3.5 mph - N/A   Scattered Clouds
1:15 PM 87.8 °F 97.6 °F 75.2 °F 66% 29.97 in 10.0 mi West 4.6 mph - N/A   Scattered Clouds
1:35 PM 87.8 °F 95.6 °F 73.4 °F 62% 29.97 in 10.0 mi West 5.8 mph - N/A   Scattered Clouds
1:55 PM 91.4 °F 105.1 °F 77.0 °F 63% 29.96 in 10.0 mi WNW 9.2 mph - N/A   Scattered Clouds
2:15 PM 91.4 °F 102.5 °F 75.2 °F 59% 29.95 in 10.0 mi West 6.9 mph - N/A   Clear
2:35 PM 91.4 °F 100.1 °F 73.4 °F 55% 29.95 in 10.0 mi West 5.8 mph - N/A   Clear
2:55 PM 91.4 °F 98.4 °F 71.6 °F 52% 29.94 in 10.0 mi WNW 5.8 mph - N/A   Clear
3:15 PM 91.4 °F 102.5 °F 75.2 °F 59% 29.94 in 10.0 mi WSW 4.6 mph - N/A   Clear
3:35 PM 89.6 °F 98.2 °F 73.4 °F 59% 29.93 in 10.0 mi SW 6.9 mph - N/A   Clear
3:55 PM 89.6 °F 98.2 °F 73.4 °F 59% 29.93 in 10.0 mi WSW 5.8 mph - N/A   Clear
4:15 PM 87.8 °F 95.6 °F 73.4 °F 62% 29.93 in 10.0 mi WSW 5.8 mph - N/A   Clear
4:35 PM 87.8 °F 95.6 °F 73.4 °F 62% 29.93 in 10.0 mi West 5.8 mph - N/A   Clear
4:55 PM 87.8 °F 97.6 °F 75.2 °F 66% 29.93 in 10.0 mi West 6.9 mph - N/A   Clear
5:15 PM 86.0 °F 93.4 °F 73.4 °F 66% 29.94 in 10.0 mi WNW 16.1 mph 25.3 mph N/A Thunderstorm Clear
5:35 PM 82.4 °F 87.2 °F 71.6 °F 70% 29.95 in 10.0 mi WNW 13.8 mph 18.4 mph N/A   Clear
5:55 PM 80.6 °F 85.4 °F 73.4 °F 79% 29.94 in 10.0 mi NW 8.1 mph - N/A   Clear
6:15 PM 80.6 °F 85.4 °F 73.4 °F 79% 29.94 in 10.0 mi NNW 4.6 mph - N/A   Clear
6:35 PM 80.6 °F 84.6 °F 71.6 °F 74% 29.94 in 10.0 mi NW 5.8 mph - N/A   Clear
6:55 PM 80.6 °F 85.4 °F 73.4 °F 79% 29.94 in 10.0 mi Calm Calm - N/A   Clear
7:15 PM 80.6 °F 85.4 °F 73.4 °F 79% 29.94 in 10.0 mi WNW 3.5 mph - N/A   Clear
7:35 PM 80.6 °F 85.4 °F 73.4 °F 79% 29.94 in 10.0 mi Calm Calm - N/A   Clear
7:55 PM 80.6 °F 86.2 °F 75.2 °F 84% 29.95 in 10.0 mi Calm Calm - N/A Rain Light Rain
8:15 PM 80.6 °F 85.4 °F 73.4 °F 79% 29.94 in 10.0 mi NW 4.6 mph - N/A Rain Light Rain
8:35 PM 78.8 °F - 73.4 °F 83% 29.95 in 10.0 mi Calm Calm - N/A   Light Drizzle
8:55 PM 78.8 °F - 73.4 °F 83% 29.95 in 10.0 mi South 3.5 mph - N/A   Light Drizzle
9:15 PM 78.8 °F - 75.2 °F 89% 29.96 in 10.0 mi Calm Calm - N/A   Clear
9:35 PM 78.8 °F - 75.2 °F 89% 29.97 in 10.0 mi Calm Calm - N/A   Clear
9:55 PM 78.8 °F - 77.0 °F 94% 29.98 in 10.0 mi Calm Calm - N/A Rain Light Rain
10:15 PM 78.8 °F - 75.2 °F 89% 29.98 in 10.0 mi Calm Calm - N/A Rain Light Rain
10:35 PM 78.8 °F - 75.2 °F 89% 29.98 in 10.0 mi Calm Calm - N/A Rain Light Rain
10:55 PM 78.8 °F - 77.0 °F 94% 29.98 in 10.0 mi Calm Calm - N/A   Clear
11:15 PM 78.8 °F - 77.0 °F 94% 29.98 in 7.0 mi SSE 3.5 mph - N/A   Clear
11:35 PM 78.8 °F - 77.0 °F 94% 29.97 in 10.0 mi Calm Calm - N/A   Clear
11:55 PM 78.8 °F - 77.0 °F 94% 29.97 in 7.0 mi SW 3.5 mph - N/A   Clear